{"data":{"norad_id":62604,"epoch":"2026-05-25T03:52:44.317056Z","epoch_age_seconds":51203,"freshness":"FRESH","line1":"1 62604U 25008T   26145.16162404  .00009886  00000+0  36822-3 0  9999","line2":"2 62604  43.0018 205.7150 0001907 273.3647  86.6986 15.27586561 77266","mean_motion":15.27586561,"eccentricity":0.0001907,"inclination_deg":43.0018,"raan_deg":205.715,"arg_perigee_deg":273.3647,"mean_anomaly_deg":86.6986,"bstar":0.00036822,"rev_number":7726,"period_min":94.266343836996,"perigee_km":481.72102567363,"apogee_km":484.3378745577,"semimajor_km":6861.1664501157,"source":"CELESTRAK","updated_at":"2026-05-25T13:38:19.736838Z"}}